Weather History for Sussex, NJ

Change the Weather History Date:

Monday, March 3, 2014

  Actual Average Record
Temperature  
Mean Temperature 18 °F -  
Max Temperature 24 °F 44 °F 68 °F (1991)
Min Temperature 10 °F 23 °F 5 °F (1950)
Degree Days  
Heating Degree Days 47    
Moisture  
Dew Point 0 °F    
Average Humidity 47    
Maximum Humidity 55    
Minimum Humidity 36    
Precipitation  
Precipitation 0.00 in - - ()
Sea Level Pressure  
Sea Level Pressure 30.20 in    
Wind  
Wind Speed 8 mph (North)    
Max Wind Speed 13 mph    
Max Gust Speed 22 mph    
Visibility 10 miles    
Events      
Averages and records for this station are not official NWS values.
T = Trace of Precipitation, MM = Missing Value Source: NWS Daily Summary

Daily Weather History Graph

Daily Weather History Graph

Search for Another Location

Airport:

Trip Planner

Search our weather history database for the weather conditions in past years. The results will help you decide how hot, cold, wet, or windy it might be!

Date:

Astronomy

Mar. 03, 2014 Rise Set
Actual Time 6:29 AM EST 5:51 PM EST
Civil Twilight 6:02 AM EST 6:19 PM EST
Nautical Twilight 5:30 AM EST 6:51 PM EST
Astronomical Twilight 4:58 AM EST 7:23 PM EST
Moon 7:34 AM EST (3/3) 8:54 PM EST (3/3)
Length of Visible Light 12h 17m
Length of Day
11h 21m
Waxing Crescent, 8% of the Moon is Illuminated
Mar 3
Waxing Crescent
Mar 8
First Quarter
Mar 16
Full
Mar 23
Last Quarter
Mar 30
New

Hourly Weather History & Observations

Time (EST) Temp. Windchill Dew Point Humidity Pressure Visibility Wind Dir Wind Speed Gust Speed Precip Events Conditions
12:53 AM 24.1 °F 16.0 °F 10.0 °F 55% 30.05 in 10.0 mi North 6.9 mph - N/A   Overcast
1:53 AM 23.0 °F 13.9 °F 9.0 °F 55% 30.06 in 10.0 mi North 8.1 mph - N/A   Overcast
2:53 AM 21.0 °F 10.6 °F 6.1 °F 53% 30.07 in 10.0 mi North 9.2 mph - N/A   Overcast
3:53 AM 19.0 °F 10.0 °F 1.9 °F 47% 30.09 in 10.0 mi NNW 6.9 mph - N/A   Overcast
4:53 AM 17.1 °F 5.8 °F 1.0 °F 50% 30.11 in 10.0 mi North 9.2 mph - N/A   Overcast
5:53 AM 16.0 °F 2.9 °F 1.0 °F 52% 30.14 in 10.0 mi North 11.5 mph 21.9 mph N/A   Overcast
6:53 AM 15.1 °F 6.4 °F -0.9 °F 49% 30.16 in 10.0 mi Variable 5.8 mph 17.3 mph N/A   Overcast
7:53 AM 14.0 °F -0.2 °F -0.9 °F 52% 30.18 in 10.0 mi North 12.7 mph 18.4 mph N/A   Mostly Cloudy
8:53 AM 14.0 °F 2.0 °F -0.9 °F 52% 30.17 in 10.0 mi North 9.2 mph - N/A   Clear
9:53 AM 15.1 °F 4.2 °F -2.9 °F 45% 30.19 in 10.0 mi North 8.1 mph - N/A   Clear
10:53 AM 15.1 °F 3.3 °F -2.9 °F 45% 30.20 in 10.0 mi North 9.2 mph - N/A   Clear
11:53 AM 15.1 °F 2.5 °F -2.0 °F 47% 30.21 in 10.0 mi NNW 10.4 mph 18.4 mph N/A   Clear
12:53 PM 17.1 °F 5.8 °F -2.0 °F 43% 30.19 in 10.0 mi NNW 9.2 mph - N/A   Clear
1:53 PM 18.0 °F 7.7 °F -0.9 °F 44% 30.19 in 10.0 mi North 8.1 mph - N/A   Clear
2:53 PM 19.0 °F 7.5 °F -0.9 °F 42% 30.20 in 10.0 mi North 10.4 mph - N/A   Clear
3:53 PM 19.9 °F 7.9 °F -0.9 °F 40% 30.21 in 10.0 mi North 11.5 mph - N/A   Clear
4:53 PM 21.0 °F 9.9 °F -2.0 °F 36% 30.22 in 10.0 mi North 10.4 mph 16.1 mph N/A   Clear
5:53 PM 19.9 °F 14.9 °F -2.0 °F 38% 30.25 in 10.0 mi Variable 3.5 mph - N/A   Clear
6:53 PM 14.0 °F - -0.9 °F 52% 30.27 in 10.0 mi Calm Calm - N/A   Clear
7:53 PM 17.1 °F - -2.0 °F 43% 30.30 in 10.0 mi Calm Calm - N/A   Clear
8:53 PM 15.1 °F - -2.9 °F 45% 30.32 in 10.0 mi North - - N/A   Clear
9:53 PM 12.9 °F 6.9 °F -4.0 °F 47% 30.34 in 10.0 mi North 3.5 mph - N/A   Clear
10:53 PM 12.0 °F 4.1 °F -5.1 °F 46% 30.35 in 10.0 mi Variable 4.6 mph - N/A   Clear
11:53 PM 10.0 °F - -6.0 °F 48% 30.34 in 10.0 mi Calm Calm - N/A   Clear